Coleman, TX

6:28 PM CDT on August 28, 2016 (GMT -0500)
Coleman Municipal

Weather History for KCOM - November, 2013

Change the Weather History Date:

Wednesday, November 6, 2013

  Actual Average (KABI) Record (KABI)
Temperature  
Mean Temperature 52 °F 59 °F  
Max Temperature 62 °F 70 °F 88 °F (1945)
Min Temperature 40 °F 47 °F 24 °F (1959)
Degree Days  
Heating Degree Days 14 8  
Month to date heating degree days 41  
Since 1 July heating degree days 145  
Cooling Degree Days 0 1  
Month to date cooling degree days 8  
Year to date cooling degree days 2397  
Growing Degree Days 2 (Base 50)    
Moisture  
Dew Point 40 °F    
Average Humidity 66    
Maximum Humidity 97    
Minimum Humidity 29    
Precipitation  
Precipitation 0.08 in 0.06 in 1.13 in (1925)
Month to date precipitation 0.38  
Year to date precipitation 22.56  
Sea Level Pressure  
Sea Level Pressure 30.24 in    
Wind  
Wind Speed 11 mph (North)    
Max Wind Speed 23 mph    
Max Gust Speed 32 mph    
Visibility 9 miles    
Events Fog , Rain    
T = Trace of Precipitation, MM = Missing Value Source: NWS Daily Summary

Daily Weather History Graph

Daily Weather History Graph

Search for Another Location

Airport or City:

Trip Planner

Search our weather history database for the weather conditions in past years. The results will help you decide how hot, cold, wet, or windy it might be!

Date:

Astronomy

Nov. 06, 2013 Rise Set
Actual Time 6:58 AM CST 5:43 PM CST
Civil Twilight 6:32 AM CST 6:09 PM CST
Nautical Twilight 6:03 AM CST 6:38 PM CST
Astronomical Twilight 5:35 AM CST 7:06 PM CST
Moon 10:10 AM CST (11/6) 8:54 PM CST (11/6)
Length of Visible Light 11h 36m
Length of Day
10h 45m
Waxing Crescent, 14% of the Moon is Illuminated
Nov 6
Waxing Crescent
Nov 9
First Quarter
Nov 17
Full
Nov 25
Last Quarter
Dec 2
New

Hourly Weather History & Observations

Time (CST) Temp. Windchill Dew Point Humidity Pressure Visibility Wind Dir Wind Speed Gust Speed Precip Events Conditions
12:15 AM 61.9 °F - 60.8 °F 96% 30.01 in 0.2 mi SSW 5.8 mph - N/A Fog Fog
12:35 AM 61.9 °F - 60.8 °F 96% 30.01 in 0.2 mi SW 4.6 mph - N/A Fog Fog
12:55 AM 61.7 °F - 60.8 °F 97% 30.01 in 0.2 mi SW 4.6 mph - N/A Fog Fog
1:15 AM 61.7 °F - 60.8 °F 97% 30.01 in 0.2 mi Calm Calm - N/A Fog Fog
1:35 AM 61.3 °F - 60.3 °F 96% 30.01 in 0.2 mi Calm Calm - N/A Fog Fog
1:55 AM 61.3 °F - 60.3 °F 96% 30.01 in 0.2 mi Calm Calm - N/A Fog Fog
2:15 AM 61.2 °F - 60.1 °F 96% 30.01 in 0.2 mi West 3.5 mph - N/A Fog Fog
2:35 AM 61.2 °F - 60.1 °F 96% 30.03 in 0.2 mi NNW 12.7 mph 17.3 mph N/A Fog Fog
2:55 AM 56.5 °F - 55.0 °F 95% 30.05 in 10.0 mi North 20.7 mph 32.2 mph N/A   Overcast
3:15 AM 54.3 °F - 52.7 °F 94% 30.07 in 10.0 mi NNW 13.8 mph 25.3 mph N/A   Overcast
3:35 AM 53.2 °F - 51.3 °F 93% 30.08 in 10.0 mi North 15.0 mph 19.6 mph N/A   Overcast
3:55 AM 52.3 °F - 49.5 °F 90% 30.09 in 10.0 mi NNW 15.0 mph 24.2 mph N/A   Overcast
4:15 AM 51.8 °F - 49.1 °F 90% 30.09 in 10.0 mi North 15.0 mph - N/A   Overcast
4:35 AM 51.8 °F - 48.7 °F 89% 30.11 in 10.0 mi North 13.8 mph 18.4 mph N/A   Overcast
4:55 AM 51.1 °F - 47.3 °F 87% 30.11 in 10.0 mi North 16.1 mph 26.5 mph N/A   Overcast
5:15 AM 50.7 °F - 46.9 °F 87% 30.12 in 10.0 mi North 20.7 mph - N/A Rain Light Rain
5:35 AM 50.0 °F - 44.1 °F 80% 30.13 in 10.0 mi North 23.0 mph 26.5 mph N/A Rain Light Rain
5:55 AM 49.3 °F - 43.7 °F 81% 30.15 in 10.0 mi North 15.0 mph 23.0 mph N/A Rain Light Rain
6:15 AM 48.2 °F - 43.7 °F 84% 30.17 in 10.0 mi North 17.3 mph 21.9 mph 0.01 in Rain Light Rain
6:35 AM 47.1 °F - 41.7 °F 81% 30.18 in 5.0 mi North 19.6 mph - 0.05 in Rain Rain
6:55 AM 46.4 °F 39.2 °F 41.9 °F 84% 30.17 in 10.0 mi North 18.4 mph 26.5 mph 0.08 in Rain Light Rain
7:15 AM 46.2 °F 38.7 °F 40.8 °F 81% 30.18 in 10.0 mi North 19.6 mph 28.8 mph N/A   Overcast
7:35 AM 45.9 °F 38.5 °F 39.9 °F 80% 30.20 in 10.0 mi North 18.4 mph 25.3 mph N/A Rain Light Rain
7:55 AM 46.2 °F 38.3 °F 39.4 °F 77% 30.23 in 10.0 mi North 21.9 mph 27.6 mph N/A   Overcast
8:15 AM 45.7 °F 38.3 °F 39.6 °F 79% 30.24 in 10.0 mi North 18.4 mph 25.3 mph N/A Rain Light Rain
8:35 AM 46.0 °F 39.3 °F 39.0 °F 76% 30.25 in 10.0 mi North 16.1 mph 23.0 mph N/A   Mostly Cloudy
8:55 AM 46.4 °F 40.7 °F 38.5 °F 74% 30.25 in 10.0 mi North 12.7 mph 23.0 mph N/A   Clear
9:15 AM 46.2 °F 39.8 °F 37.8 °F 72% 30.27 in 10.0 mi North 15.0 mph 23.0 mph N/A   Clear
9:35 AM 48.6 °F - 38.8 °F 69% 30.27 in 10.0 mi NNE 19.6 mph 24.2 mph N/A   Clear
9:55 AM 50.0 °F - 38.7 °F 65% 30.27 in 10.0 mi North 20.7 mph 27.6 mph N/A   Clear
10:15 AM 51.4 °F - 39.4 °F 63% 30.29 in 10.0 mi North 17.3 mph - N/A   Clear
10:35 AM 52.0 °F - 39.7 °F 63% 30.30 in 10.0 mi North 16.1 mph 24.2 mph N/A   Clear
10:55 AM 53.6 °F - 39.9 °F 60% 30.30 in 10.0 mi North 16.1 mph 20.7 mph N/A   Clear
11:15 AM 54.5 °F - 38.8 °F 56% 30.30 in 10.0 mi North 17.3 mph - N/A   Clear
11:35 AM 55.4 °F - 38.7 °F 53% 30.30 in 10.0 mi North 13.8 mph - N/A   Clear
11:55 AM 55.6 °F - 37.9 °F 52% 30.30 in 10.0 mi North 13.8 mph - N/A   Mostly Cloudy
12:15 PM 57.9 °F - 37.9 °F 47% 30.30 in 10.0 mi North 12.7 mph 17.3 mph N/A   Scattered Clouds
12:35 PM 58.3 °F - 37.8 °F 46% 30.29 in 10.0 mi North 15.0 mph 19.6 mph N/A   Scattered Clouds
12:55 PM 60.1 °F - 36.0 °F 41% 30.28 in 10.0 mi North 15.0 mph 18.4 mph N/A   Clear
1:15 PM 60.8 °F - 35.2 °F 38% 30.28 in 10.0 mi North 12.7 mph - N/A   Clear
1:35 PM 61.0 °F - 32.5 °F 34% 30.27 in 10.0 mi North 16.1 mph - N/A   Clear
1:55 PM 61.0 °F - 32.2 °F 34% 30.27 in 10.0 mi NNE 11.5 mph 18.4 mph N/A   Clear
2:15 PM 61.9 °F - 31.6 °F 32% 30.27 in 10.0 mi North 11.5 mph 17.3 mph N/A   Clear
2:35 PM 62.1 °F - 31.6 °F 32% 30.27 in 5.0 mi North 13.8 mph 19.6 mph N/A   Haze
2:55 PM 62.2 °F - 31.3 °F 31% 30.27 in 10.0 mi North 12.7 mph - N/A   Clear
3:15 PM 62.2 °F - 30.4 °F 30% 30.27 in 10.0 mi NNE 13.8 mph - N/A   Clear
3:35 PM 61.9 °F - 28.8 °F 29% 30.28 in 10.0 mi NNE 15.0 mph 19.6 mph N/A   Clear
3:55 PM 61.7 °F - 29.8 °F 30% 30.28 in 10.0 mi NNE 12.7 mph - N/A   Clear
4:15 PM 61.2 °F - 29.3 °F 30% 30.28 in 10.0 mi North 13.8 mph - N/A   Clear
4:35 PM 60.4 °F - 28.8 °F 30% 30.28 in 2.5 mi NNE 11.5 mph - N/A   Haze
4:55 PM 59.9 °F - 29.1 °F 31% 30.28 in 10.0 mi NNE 10.4 mph - N/A   Clear
5:15 PM 58.5 °F - 29.1 °F 33% 30.28 in 10.0 mi NNE 8.1 mph - N/A   Clear
5:35 PM 56.1 °F - 31.8 °F 40% 30.29 in 10.0 mi NNE 5.8 mph - N/A   Clear
5:55 PM 52.2 °F - 33.6 °F 49% 30.30 in 10.0 mi NNE 6.9 mph - N/A   Clear
6:15 PM 50.7 °F - 33.6 °F 52% 30.31 in 10.0 mi NNE 4.6 mph - N/A   Clear
6:35 PM 49.1 °F - 34.3 °F 57% 30.31 in 10.0 mi NNE 5.8 mph - N/A   Clear
6:55 PM 48.4 °F - 34.0 °F 58% 30.32 in 10.0 mi NNE 5.8 mph - N/A   Clear
7:15 PM 47.3 °F - 34.0 °F 60% 30.33 in 10.0 mi North 6.9 mph - N/A   Clear
7:35 PM 46.8 °F - 33.8 °F 61% 30.34 in 10.0 mi North 6.9 mph - N/A   Clear
7:55 PM 46.2 °F 42.7 °F 34.3 °F 63% 30.34 in 10.0 mi North 6.9 mph - N/A   Clear
8:15 PM 45.0 °F 41.2 °F 34.2 °F 66% 30.35 in 10.0 mi North 6.9 mph - N/A   Clear
8:35 PM 44.2 °F 41.0 °F 33.8 °F 67% 30.36 in 10.0 mi North 5.8 mph - N/A   Clear
8:55 PM 43.9 °F 40.5 °F 33.3 °F 66% 30.36 in 10.0 mi North 5.8 mph - N/A   Clear
9:15 PM 42.8 °F 39.3 °F 33.4 °F 70% 30.37 in 10.0 mi North 5.8 mph - N/A   Clear
9:35 PM 42.4 °F 38.1 °F 33.6 °F 71% 30.37 in 10.0 mi North 6.9 mph - N/A   Clear
9:55 PM 42.1 °F 37.7 °F 33.1 °F 70% 30.37 in 10.0 mi North 6.9 mph - N/A   Clear
10:15 PM 41.9 °F 37.5 °F 33.1 °F 71% 30.38 in 10.0 mi North 6.9 mph - N/A   Clear
10:35 PM 41.9 °F 38.2 °F 32.5 °F 69% 30.38 in 10.0 mi North 5.8 mph - N/A   Clear
10:55 PM 41.7 °F 38.8 °F 32.5 °F 70% 30.39 in 10.0 mi North 4.6 mph - N/A   Clear
11:15 PM 41.0 °F 37.1 °F 32.5 °F 72% 30.38 in 10.0 mi North 5.8 mph - N/A   Clear
11:35 PM 41.0 °F 38.0 °F 32.0 °F 70% 30.39 in 10.0 mi NNE 4.6 mph - N/A   Clear
11:55 PM 40.5 °F 38.4 °F 32.0 °F 72% 30.39 in 10.0 mi NNE 3.5 mph - N/A   Clear